Location: Unspecified
(43.1763°N, 79.4719°W)
Time: 19:06:10
(UTC-04:00)

Cosmos 2058 - Visible Passes

Search period start: 20 August 2017 00:00
Search period end: 30 August 2017 00:00
Orbit: 562 x 586 km, 82.5° (Epoch: 20 August)

Date Brightness Start Highest point End Pass type
(mag) Time Alt. Az. Time Alt. Az. Time Alt. Az.
20 Aug 5.7 02:05:21 10° NNE 02:06:47 14° NE 02:06:47 14° NE visible
20 Aug 4.6 03:41:03 10° NNW 03:42:58 25° NW 03:42:58 25° NW visible
21 Aug 5.6 02:08:12 10° NNE 02:09:44 16° NE 02:09:44 16° NE visible
21 Aug 4.9 03:44:32 10° NNW 03:45:56 19° NW 03:45:56 19° NW visible
22 Aug 5.5 02:11:13 10° NNE 02:12:43 18° NNE 02:12:43 18° NNE visible
22 Aug 5.3 03:48:07 10° NW 03:48:55 14° NW 03:48:55 14° NW visible
23 Aug 5.5 02:14:19 10° N 02:15:43 19° NNE 02:15:43 19° NNE visible
23 Aug 5.5 03:51:48 10° NW 03:51:55 10° NW 03:51:55 10° NW visible
24 Aug 5.5 02:17:30 10° N 02:18:45 18° NNE 02:18:45 18° NNE visible
25 Aug 5.6 02:20:44 10° N 02:21:47 17° N 02:21:47 17° N visible
26 Aug 5.7 02:24:01 10° N 02:24:51 16° N 02:24:51 16° N visible
27 Aug 5.8 02:27:21 10° NNW 02:27:56 14° NNW 02:27:56 14° NNW visible
28 Aug 5.9 02:30:45 10° NNW 02:31:01 12° NNW 02:31:01 12° NNW visible
